SCP
0 0 0 0 0 0 0 0 0 0 0 0 0 0 0 0 0 0 0 0 0 0 0 0 0 0 0 0 0 0 0 0 0 0 0 0 0 0 0 0 0 0 0
0 0 0 0 0 0 0 0 0 0 0 0 0 0 0 0 0 0 0 0 0 0 0 0 0 0 0 0 0 0 0 0 0 0 0 0 0 0 0 0 0 0 0
0 0 0 0 0 0 0 0 0 0 0 0 0 0 0 0 0 0 0 0 0 0 0 0 0 0 0 0 0 0 0 0 0 0 0 0 0 0 0 0 0 0 0
0 0 0 0 0 0 0 0 0 0 0 0 0 0 0 0 0 0 0 0 0 0 0 0 0 0 0 0 0 0 0 0 0 0 0 0 0 0 0 0 0 0 0
0 0 0 0 0 0 0 0 0 0 0 0 0 0 0 0 0 0 0 0 0 0 0 0 0 0 0 0 0 0 0 0 0 0 0 0 0 0 0 0 0 0 0
0 0 0 0 0 0 0 0 0 0 0 0 0 0 0 0 0 0 0 0 0 0 0 0 0 0 0 0 0 0 0 0 0 0 0 0 0 0 0 0 0 0 0
0 0 0 0 0 0 0 0 0 0 0 0 0 0 0 0 0 0 0 0 0 0 0 0 0 0 0 0 0 0 0 0 0 0 0 0 0 0 0 0 0 0 0
0 0 0 0 0 0 0 0 0 0 0 0 0 0 0 0 0 0 0 0 0 0 0 0 0 0 0 0 0 0 0 0 0 0 0 0 0 0 0 0 0 0 0
0 0 0 0 0 0 0 0 0 0 0 0 0 0 0 0 0 0 0 0 0 0 0 0 0 0 0 0 0 0 0 0 0 0 0 0 0 0 0 0 0 0 0
0 0 0 0 0 0 0 0 0 0 0 0 0 0 0 0 0 0 0 0 0 0 0 0 0 0 0 0 0 0 0 0 0 0 0 0 0 0 0 0 0 0 0
0 0 0 0 0 0 0 0 0 0 0 0 0 0 0 0 0 0 0 0 0 0 0 0 0 0 0 0 0 0 0 0 0 0 0 0 0 0 0 0 0 0 0
0 0 0 0 0 0 0 0 0 0 0 0 0 0 0 0 0 0 0 0 0 0 0 0 0 0 0 0 0 0 0 0 0 0 0 0 0 0 0 0 0 0 0
0 0 0 0 0 0 0 0 0 0 0 0 0 0 0 0 0 0 0 0 0 0 0 0 0 0 0 0 0 0 0 0 0 0 0 0 0 0 0 0 0 0 0
0 0 0 0 0 0 0 0 0 0 0 0 0 0 0 0 0 0 0 0 0 0 0 0 0 0 0 0 0 0 0 0 0 0 0 0 0 0 0 0 0 0 0
0 0 0 0 0 0 0 0 0 0 0 0 0 0 0 0 0 0 0 0 0 0 0 0 0 0 0 0 0 0 0 0 0 0 0 0 0 0 0 0 0 0 0
0 0 0 0 0 0 0 0 0 0 0 0 0 0 0 0 0 0 0 0 0 0 0 0 0 0 0 0 0 0 0 0 0 0 0 0 0 0 0 0 0 0 0
0 0 0 0 0 0 0 0 0 0 0 0 0 0 0 0 0 0 0 0 0 0 0 0 0 0 0 0 0 0 0 0 0 0 0 0 0 0 0 0 0 0 0
0 0 0 0 0 0 0 0 0 0 0 0 0 0 0 0 0 0 0 0 0 0 0 0 0 0 0 0 0 0 0 0 0 0 0 0 0 0 0 0 0 0 0
0 0 0 0 0 0 0 0 0 0 0 0 0 0 0 0 0 0 0 0 0 0 0 0 0 0 0 0 0 0 0 0 0 0 0 0 0 0 0 0 0 0 0
0 0 0 0 0 0 0 0 0 0 0 0 0 0 0 0 0 0 0 0 0 0 0 0 0 0 0 0 0 0 0 0 0 0 0 0 0 0 0 0 0 0 0
0 0 0 0 0 0 0 0 0 0 0 0 0 0 0 0 0 0 0 0 0 0 0 0 0 0 0 0 0 0 0 0 0 0 0 0 0 0 0 0 0 0 0
0 0 0 0 0 0 0 0 0 0 0 0 0 0 0 0 0 0 0 0 0 0 0 0 0 0 0 0 0 0 0 0 0 0 0 0 0 0 0 0 0 0 0
0 0 0 0 0 0 0 0 0 0 0 0 0 0 0 0 0 0 0 0 0 0 0 0 0 0 0 0 0 0 0 0 0 0 0 0 0 0 0 0 0 0 0
0 0 0 0 0 0 0 0 0 0 0 0 0 0 0 0 0 0 0 0 0 0 0 0 0 0 0 0 0 0 0 0 0 0 0 0 0 0 0 0 0 0 0
0 0 0 0 0 0 0 0 0 0 0 0 0 0 0 0 0 0 0 0 0 0 0 0 0 0 0 0 0 0 0 0 0 0 0 0 0 0 0 0 0 0 0
0 0 0 0 0 0 0 0 0 0 0 0 0 0 0 0 0 0 0 0 0 0 0 0 0 0 0 0 0 0 0 0 0 0 0 0 0 0 0 0 0 0 0
Wind_Speed
5 6 8 8 8 8 8 9 10 10 10 10 10 9 10 10 10 10 10 10 9 9 10 10 9 10 10 10 11 11 11 11 10 11 11 11 11 11 11 10 9 7 11
6 7 8 8 8 9 9 10 10 10 10 10 10 10 10 10 10 10 10 10 10 9 9 9 9 10 10 10 10 10 10 10 9 9 9 9 10 11 10 10 10 7 10
7 8 7 8 9 9 10 10 10 10 10 10 10 10 10 10 10 10 10 10 9 10 9 9 9 9 9 9 9 9 9 8 7 6 5 4 6 10 10 10 10 10 9
7 7 7 8 9 9 10 10 10 10 10 10 10 10 10 10 10 9 9 9 9 9 9 9 9 9 9 8 8 8 7 6 5 5 3 3 4 8 8 8 8 9 9
7 7 8 9 10 10 10 10 10 10 10 10 10 10 10 10 9 9 9 8 8 8 8 8 8 8 8 7 7 6 6 5 5 4 3 4 4 7 7 7 7 7 8
7 8 8 10 11 11 11 11 10 10 10 10 10 9 9 9 9 9 9 8 8 8 8 8 8 8 7 6 6 5 5 5 4 2 2 4 4 6 6 6 6 6 7
7 8 8 10 11 11 11 10 10 10 10 10 9 9 9 9 9 9 8 8 8 7 7 7 7 7 6 6 5 5 4 4 2 2 3 4 4 6 6 5 5 5 6
7 8 8 10 11 10 10 10 10 10 10 9 9 9 8 8 8 8 8 8 7 6 6 6 6 6 6 5 5 5 4 4 3 2 2 3 6 6 5 5 5 4 5
7 7 6 6 7 9 10 10 10 10 10 9 9 9 8 8 7 7 7 7 7 6 6 5 5 5 5 5 5 5 5 4 3 1 2 2 5 5 4 3 4 4 4
6 6 6 5 5 5 6 9 9 9 9 8 8 7 6 7 7 7 6 6 6 5 5 5 4 4 4 4 3 4 4 4 2 1 1 3 5 4 3 3 2 3 3
6 5 5 5 4 4 4 6 6 7 7 6 5 5 4 2 3 4 4 5 4 4 4 3 3 3 3 2 3 3 3 1 1 1 1 4 4 3 2 2 1 2 2
4 4 4 4 4 4 4 3 2 3 3 3 3 3 2 2 3 3 4 3 3 3 3 2 2 2 2 1 1 2 1 1 1 1 2 4 3 1 1 1 1 1 1
4 4 4 4 4 4 2 2 2 2 2 3 3 3 2 2 2 2 1 1 1 1 1 2 2 1 1 1 1 1 1 1 1 1 1 2 1 0 1 1 2 2 2
4 4 4 4 3 3 2 2 2 2 2 2 2 3 2 2 2 2 1 1 1 1 1 1 1 1 1 1 1 1 1 1 1 0 0 1 1 1 2 2 3 3 4
4 3 3 3 3 3 2 2 2 2 2 2 2 2 3 2 2 2 1 2 2 2 2 2 1 1 2 2 2 1 1 1 1 1 0 0 1 2 3 3 4 4 4
4 3 3 3 3 3 2 2 2 2 2 2 2 2 3 2 2 2 2 2 2 2 2 2 2 2 1 2 2 2 2 2 1 1 1 1 2 3 4 4 4 5 5
4 4 3 3 3 3 3 2 2 2 2 2 2 2 3 3 2 2 1 2 2 2 3 2 2 2 2 2 2 3 2 2 2 2 2 1 1 3 4 4 5 6 6
4 4 3 3 3 3 2 2 1 1 2 2 1 2 2 2 2 2 2 2 2 2 2 2 2 2 2 2 2 2 2 2 3 2 1 1 1 1 2 4 5 6 6
4 4 4 3 3 2 2 2 1 1 2 1 1 1 2 2 2 2 1 2 2 2 2 2 2 1 2 2 2 2 2 2 3 2 2 2 2 1 1 2 4 5 6
4 4 4 3 3 2 2 1 1 2 1 1 1 1 1 1 2 2 1 2 2 2 2 2 2 2 2 2 3 3 3 3 2 2 3 2 2 2 2 2 2 4 6
3 4 3 3 2 2 1 1 1 1 0 1 0 0 1 1 1 1 1 2 2 1 2 2 2 2 2 2 2 3 3 3 3 2 2 2 2 2 2 2 2 2 2
3 3 3 2 2 2 1 1 1 1 1 1 0 0 0 0 1 1 1 1 2 1 2 2 2 2 2 1 1 2 3 3 2 3 2 2 3 2 2 3 2 2 2
3 3 2 2 2 1 1 1 1 1 0 0 0 0 1 1 1 1 1 1 2 1 1 2 2 2 2 2 1 1 1 2 3 2 2 2 2 2 2 2 3 3 3
3 2 2 1 1 1 1 1 2 1 1 1 1 1 1 1 1 1 1 1 2 1 1 2 2 2 2 3 3 2 2 2 2 3 3 2 3 3 3 3 3 3 3
3 2 1 1 1 1 1 1 2 1 1 1 1 1 1 1 2 1 2 2 2 2 2 2 3 3 2 3 3 3 3 3 3 3 4 3 3 3 2 2 2 3 3
3 2 1 1 1 1 1 1 2 2 2 1 2 2 2 1 2 2 2 2 2 2 2 2 3 3 3 4 3 3 3 3 3 3 4 4 4 3 3 2 2 3 3
Wind_Direction
98 108 107 98 93 92 91 88 86 83 80 79 80 79 77 75 77 80 79 75 71 71 70 69 69 68 70 69 69 68 67 67 69 71 72 74 76 75 71 66 65 65 72
108 113 109 101 97 93 92 89 86 84 82 79 77 78 76 73 75 76 76 72 70 70 71 67 66 68 69 70 70 71 71 68 69 71 71 71 76 77 71 63 60 67 70
100 111 110 102 102 98 94 91 88 86 83 80 77 77 75 72 74 73 72 69 66 67 68 66 66 67 67 69 71 73 71 67 67 66 66 70 78 80 75 68 67 69 70
98 108 107 101 101 99 96 93 89 86 83 80 76 75 73 72 72 72 69 68 66 65 65 65 62 64 65 67 69 70 67 58 51 44 54 69 78 85 79 74 72 72 72
94 97 101 101 99 97 94 91 87 83 79 77 75 73 72 70 70 70 67 67 67 65 66 65 63 62 62 64 63 64 59 44 31 27 46 64 73 88 86 83 80 78 75
93 94 98 98 97 95 92 89 86 82 79 75 73 70 70 68 66 67 65 64 64 65 67 64 62 62 59 60 58 53 45 30 16 23 46 66 77 85 85 88 87 82 78
90 93 96 92 91 90 88 87 86 82 78 73 71 70 68 67 64 63 63 63 61 62 63 62 60 58 59 54 49 40 31 23 17 28 53 68 78 83 80 84 89 85 81
86 90 92 89 88 86 86 85 83 81 77 73 70 67 65 65 65 64 62 59 58 60 61 61 57 53 53 49 40 28 21 10 7 28 53 77 83 85 76 82 84 84 82
84 88 87 88 86 84 83 84 82 80 77 74 69 64 62 62 63 64 60 58 54 54 55 55 52 51 48 42 34 23 10 0 340 355 46 81 90 86 75 78 83 81 84
76 79 85 85 87 89 85 83 82 80 77 74 69 62 61 60 60 60 55 56 54 51 48 47 46 44 42 31 23 9 358 341 317 338 34 86 96 92 75 63 73 71 70
73 67 72 79 80 82 87 85 83 80 73 72 67 58 50 49 58 60 54 58 52 48 43 39 31 36 29 19 7 350 344 322 330 7 49 84 98 102 78 43 46 50 47
90 78 68 72 74 74 82 85 79 79 74 63 58 52 40 42 46 48 57 60 48 37 28 14 359 12 4 349 338 331 328 336 333 16 77 89 84 86 81 354 338 326 326
105 87 75 71 74 75 72 80 67 63 65 57 46 38 43 46 50 45 50 44 21 17 359 344 335 325 328 326 343 336 317 327 337 6 71 102 93 123 299 289 291 285 289
106 100 92 82 75 77 79 83 83 72 64 61 46 35 36 36 34 32 34 22 14 8 351 340 317 307 331 323 323 308 305 308 325 358 57 114 151 237 272 283 290 282 281
108 103 99 96 87 79 73 72 72 72 71 68 53 36 34 40 29 25 17 17 3 1 353 335 328 330 338 317 304 303 297 283 285 303 341 177 210 235 255 270 280 287 285
112 104 95 97 95 88 83 73 76 76 72 69 59 46 33 30 28 26 17 17 7 351 343 336 335 329 322 313 309 303 294 287 268 268 241 244 238 242 252 261 272 282 281
122 114 105 107 96 94 92 82 81 76 80 72 63 55 43 31 18 20 15 23 0 346 345 335 340 350 334 324 313 307 305 298 282 266 247 224 238 247 256 265 273 283 284
130 124 117 102 96 99 96 89 81 73 73 71 64 57 48 32 16 20 15 8 350 351 352 341 347 347 335 329 318 306 296 290 283 271 261 240 228 245 262 276 280 283 291
133 129 125 113 107 101 103 111 99 86 72 67 65 51 40 31 16 22 9 356 350 350 353 338 345 333 314 315 304 289 277 271 269 269 264 248 229 217 233 274 278 281 290
127 125 120 116 113 109 107 104 92 78 70 65 67 48 29 25 16 13 2 351 349 354 348 338 324 321 301 305 304 296 274 262 250 243 246 251 240 234 240 250 251 270 283
111 111 121 125 123 116 117 121 118 119 79 61 71 54 33 18 4 11 352 342 344 341 324 323 314 321 310 314 313 309 287 265 246 242 239 242 247 245 249 251 247 250 270
126 117 119 124 130 125 123 130 154 171 188 189 166 82 21 341 340 344 342 323 325 328 333 329 327 316 308 320 305 307 315 314 299 257 248 249 249 256 255 258 249 257 268
128 128 129 140 141 131 125 124 118 65 30 46 308 266 248 245 282 314 294 298 302 301 289 294 304 296 289 298 291 250 271 278 311 292 267 261 271 273 271 269 258 256 262
125 115 115 123 132 147 151 171 178 182 208 237 242 256 260 239 244 272 278 287 289 284 276 280 287 274 264 271 282 259 245 245 266 299 299 291 288 279 273 278 275 267 265
119 124 131 133 148 151 184 197 204 208 221 224 242 245 259 253 235 241 250 257 268 270 267 272 280 276 261 256 259 271 269 266 245 245 276 290 293 280 275 276 277 276 271
116 121 128 143 171 184 230 223 220 213 220 225 244 250 258 257 251 242 254 252 255 261 262 267 270 273 269 268 264 261 254 250 253 251 264 277 282 281 285 274 266 270 267